Location: Newark
(42.9277°N, 71.8621°W)
Time: 15:02:21
(UTC+00:00)

Hubble Space Telescope - Visible Passes

Search period start: 24 July 2021 00:00
Search period end: 03 August 2021 00:00
Orbit: 535 x 539 km, 28.5° (Epoch: 23 July)

Date Brightness Start Highest point End Pass type
(mag) Time Alt. Az. Time Alt. Az. Time Alt. Az.
26 Jul 2.9 01:20:16 10° S 01:20:57 10° S 01:21:39 10° SSE visible
27 Jul 3.0 01:08:55 10° SSW 01:09:50 11° S 01:10:45 10° SSE visible
28 Jul 3.0 00:57:47 10° SSW 00:58:42 11° S 00:59:38 10° SSE visible
29 Jul 3.0 00:46:50 10° SSW 00:47:34 10° S 00:48:19 10° S visible
